TimeCDT,TemperatureF,Dew PointF,Humidity,Sea Level PressureIn,VisibilityMPH,Wind Direction,Wind SpeedMPH,Gust SpeedMPH,PrecipitationIn,Events,Conditions,WindDirDegrees,DateUTC
12:53 AM,10.9,7.0,84,30.23,10.0,Calm,Calm,-,N/A,,Overcast,0,2013-03-24 05:53:00
1:53 AM,12.0,9.0,88,30.22,10.0,NNW,4.6,-,N/A,,Overcast,340,2013-03-24 06:53:00
2:53 AM,12.9,9.0,84,30.22,10.0,NNW,6.9,-,N/A,,Overcast,330,2013-03-24 07:53:00
3:53 AM,12.9,9.0,84,30.21,10.0,NW,4.6,-,N/A,,Overcast,320,2013-03-24 08:53:00
4:53 AM,14.0,10.0,84,30.20,5.0,NNW,4.6,-,0.00,Snow,Light Snow,330,2013-03-24 09:53:00
5:53 AM,17.1,12.0,81,30.19,4.0,NNW,6.9,-,0.00,Snow,Light Snow,340,2013-03-24 10:53:00
6:53 AM,18.0,12.9,81,30.20,8.0,North,6.9,-,0.00,,Overcast,350,2013-03-24 11:53:00
7:53 AM,18.0,14.0,84,30.21,10.0,North,6.9,-,N/A,,Overcast,360,2013-03-24 12:53:00
8:53 AM,19.0,15.1,85,30.20,10.0,North,8.1,-,N/A,,Overcast,350,2013-03-24 13:53:00
9:53 AM,19.9,15.1,81,30.20,10.0,North,11.5,-,N/A,,Overcast,360,2013-03-24 14:53:00
10:53 AM,21.9,16.0,78,30.21,10.0,North,11.5,-,N/A,,Scattered Clouds,360,2013-03-24 15:53:00
11:53 AM,27.0,18.0,69,30.20,10.0,NNE,9.2,-,N/A,,Clear,20,2013-03-24 16:53:00
12:53 PM,28.0,19.9,72,30.20,10.0,North,12.7,-,N/A,,Partly Cloudy,360,2013-03-24 17:53:00
1:53 PM,30.0,23.0,75,30.19,10.0,NNW,16.1,-,N/A,,Clear,340,2013-03-24 18:53:00
2:53 PM,28.9,21.9,75,30.19,10.0,NNW,17.3,-,N/A,,Clear,340,2013-03-24 19:53:00
3:53 PM,28.0,21.0,75,30.20,10.0,NNW,18.4,-,N/A,,Overcast,340,2013-03-24 20:53:00
4:53 PM,28.0,21.0,75,30.20,10.0,NNW,18.4,-,N/A,,Overcast,340,2013-03-24 21:53:00
5:53 PM,26.1,19.9,78,30.21,10.0,NNW,18.4,-,N/A,,Overcast,340,2013-03-24 22:53:00
6:53 PM,25.0,19.0,78,30.22,10.0,NNW,19.6,-,N/A,,Overcast,340,2013-03-24 23:53:00
7:53 PM,25.0,19.0,78,30.23,10.0,NNW,16.1,-,N/A,,Overcast,340,2013-03-25 00:53:00
8:53 PM,24.1,19.0,81,30.25,10.0,NNW,17.3,-,N/A,,Overcast,340,2013-03-25 01:53:00
9:53 PM,24.1,18.0,77,30.25,10.0,North,18.4,-,N/A,,Overcast,350,2013-03-25 02:53:00
10:53 PM,24.1,19.0,81,30.25,10.0,North,17.3,-,N/A,,Overcast,350,2013-03-25 03:53:00
11:53 PM,24.1,18.0,77,30.25,10.0,North,16.1,-,N/A,,Overcast,350,2013-03-25 04:53:00